STARLINK-32724, 62441

Orbit data source: Space-Track

STARLINK-32724, 62441 is a payload satellite owned by SpaceX/Seattle (US) in LEO that was launched on Sun, 29 Dec 2024 UTC via an FALCON 9 launch vehicle from the Air Force Western Test Range (AFWTR). Payload-class satellites include a variety of spacecraft equipped with specific instruments for various scientific and technological missions. These include communications satellites like Starlink; space stations such as the ISS; scientific satellites like the Hubble; Earth observation satellites from companies like Planet Labs, Umbra, and HawkEye 360; GPS; miniature CubeSats for education and research; and military/defense satellites.

Loading next visibility...
Identifier
62441, 2024-251K
Orbit
LEO
Country
Flag of USUS
Related business
Manufacturer
SpaceX/Seattle
Mission
Operational Commercial Communications
Bus & Motor
STARLINK V2M, Unknown motor
Mass
730 kg wet, ~700 kg dry
Launch date (UTC)
2024-12-29 (1 year ago)
Launch vehicle
FALCON 9
Launch site
Air Force Western Test Range (AFWTR)
Object type
Payload
Rocket body
Debris
Shape & HBR
Box + 2 Pan, 17.7 m
Radar Cross Section
33.884 m², Large (>1 m²)

Expand to show TLE details & history
Last TLE update: 11 hours ago

TLE from 11 hours ago
0 STARLINK-32724
1 62441U 24251K   26171.44007492  .00011967  00000-0  36478-3 0  9993
2 62441  53.1592 217.7804 0001249  57.7637 302.3486 15.34396170 83527
Epoch: 2026-06-20T10:33Z
TLE epoch observation values (Epoch: 2026-06-20T10:33:42.473Z)
Latitude
-0.00005°
Longitude
150.69873°
Altitude
463.159 km
Speed
7.636 km/s
True Right ascension
14h 31m 07s
True Declination
0° 00' 00"
Sunlit
Object was in full shadow at epoch
Visualization orbit readout
Latitude
Unknown
Longitude
Unknown
Altitude
Unknown
Speed
Unknown
Apparent Right ascension
Unknown
Apparent Declination
Unknown
Sunlit
N/A
Visualization observer readout
Local Sidereal Time
08:33:21
Azimuth
Unknown
Elevation
Unknown
Doppler factor
Unknown
Orbital elements
Apogee altitude
463.826 km
Perigee altitude
462.117 km
Semi-major axis
6,841.109 km
Eccentricity
0.00012
Inclination
53.1592°
RAAN
217.7804°
Arg. of periapsis
57.7637°
True anomaly
302.33651°
Mean anomaly
302.3486°
Eccentric anomaly
302.34255°
Mean motion
3.83578 °/min
Orbital period
93.85 mins
BSTAR
0.00036478
Loading maneuver chart data...
Computing Atmospheric mass density...
Loading historical data...
Loading historical data...
Loading historical data...
Loading historical data...
Loading historical data...
Loading historical data...
Loading historical data...

Documentation

Showing up to 5 results
|